Location: Santa Clara
(37.3540°N, 121.9540°W)
Time: 03:03:43
(UTC-07:00)

Hubble Space Telescope - Pass Details

Date: 28 May 2024
Orbit: 511 x 514 km, 28.5° (Epoch: 13 June)

Event Time Altitude Azimuth Distance (km) Brightness Sun altitude
Rises 21:37:33 0° 244° (WSW) 2,610 4.6 -13.4°
Reaches altitude 10° 21:40:08 10° 229° (SW) 1,724 3.4 -13.7°
Maximum altitude 21:43:15 22° 177° (S) 1,145 2.0 -14.2°
Enters shadow 21:43:50 21° 163° (SSE) 1,170 2.0 -14.3°
